| time (UTC) | temp F | wind direction | speed MPH | gust MPH | rain 1hr in | rain 24hr in | rain mn in | humidity % | barometer mb |
| 20260509002318 | 60 | 263 | 0.0 | 3.0 | 0.00 | 0.01 | 0.00 | 89 | 1030.4 |
| 20260509001819 | 60 | 263 | 0.0 | 3.0 | 0.00 | 0.01 | 0.00 | 89 | 1030.4 |
| 20260509001305 | 60 | 263 | 0.0 | 2.0 | 0.00 | 0.01 | 0.00 | 90 | 1030.5 |
| 20260509000753 | 59 | 263 | 0.0 | 3.0 | 0.00 | 0.01 | 0.00 | 90 | 1030.5 |
| 20260508235643 | 60 | 263 | 0.0 | 0.0 | 0.00 | 0.01 | 0.00 | 91 | 1030.5 |
| 20260508234516 | 59 | 263 | 0.0 | 0.0 | 0.00 | 0.01 | 0.00 | 92 | 1030.5 |
| 20260508234015 | 58 | 263 | 0.0 | 0.0 | 0.00 | 0.01 | 0.00 | 93 | 1030.5 |
| 20260508233518 | 57 | 263 | 0.0 | 0.0 | 0.00 | 0.01 | 0.00 | 93 | 1030.5 |
| 20260508233003 | 57 | 263 | 0.0 | 0.0 | 0.00 | 0.01 | 0.00 | 93 | 1030.5 |
| 20260508232452 | 56 | 263 | 0.0 | 0.0 | 0.00 | 0.01 | 0.00 | 92 | 1030.4 |
| 20260508231340 | 56 | 263 | 0.0 | 0.0 | 0.00 | 0.01 | 0.00 | 93 | 1030.2 |
| 20260508230828 | 55 | 263 | 0.0 | 0.0 | 0.00 | 0.01 | 0.00 | 93 | 1030.2 |
| 20260508224440 | 53 | 263 | 0.0 | 0.0 | 0.00 | 0.01 | 0.00 | 92 | 1030.2 |
| 20260508223259 | 52 | 263 | 0.0 | 0.0 | 0.00 | 0.01 | 0.00 | 92 | 1030.1 |
| 20260508222750 | 52 | 263 | 0.0 | 0.0 | 0.00 | 0.01 | 0.00 | 92 | 1030.1 |
| 20260508222234 | 52 | 263 | 0.0 | 0.0 | 0.00 | 0.01 | 0.00 | 92 | 1030.1 |
| 20260508221720 | 52 | 263 | 0.0 | 0.0 | 0.00 | 0.01 | 0.00 | 92 | 1030.1 |
| 20260508221226 | 52 | 263 | 0.0 | 0.0 | 0.00 | 0.01 | 0.00 | 92 | 1030.0 |
| 20260508220114 | 51 | 263 | 0.0 | 0.0 | 0.00 | 0.00 | 0.00 | 91 | 1030.0 |
| 20260508215621 | 51 | 263 | 0.0 | 0.0 | 0.00 | 0.00 | 0.00 | 91 | 1029.9 |
| 20260508215102 | 51 | 263 | 0.0 | 0.0 | 0.00 | 0.00 | 0.00 | 91 | 1029.9 |
| 20260508213941 | 51 | 263 | 0.0 | 0.0 | 0.00 | 0.00 | 0.00 | 91 | 1029.6 |
| 20260508213429 | 51 | 263 | 0.0 | 0.0 | 0.00 | 0.00 | 0.00 | 91 | 1029.6 |
| 20260508212923 | 52 | 263 | 0.0 | 0.0 | 0.00 | 0.00 | 0.00 | 91 | 1029.6 |
| 20260508212410 | 52 | 263 | 0.0 | 0.0 | 0.00 | 0.00 | 0.00 | 91 | 1029.6 |
| 20260508211854 | 52 | 263 | 0.0 | 0.0 | 0.00 | 0.00 | 0.00 | 91 | 1029.6 |
| 20260508211349 | 52 | 263 | 0.0 | 0.0 | 0.00 | 0.00 | 0.00 | 91 | 1029.6 |
| 20260508210839 | 52 | 263 | 0.0 | 0.0 | 0.00 | 0.00 | 0.00 | 91 | 1029.6 |
| 20260508210322 | 52 | 263 | 0.0 | 0.0 | 0.00 | 0.00 | 0.00 | 91 | 1029.6 |
| 20260508205158 | 52 | 263 | 0.0 | 0.0 | 0.00 | 0.00 | 0.00 | 91 | 1029.5 |
| 20260508204643 | 53 | 263 | 0.0 | 0.0 | 0.00 | 0.00 | 0.00 | 90 | 1029.5 |
| 20260508204139 | 53 | 263 | 0.0 | 0.0 | 0.00 | 0.00 | 0.00 | 91 | 1029.4 |
| 20260508203633 | 53 | 263 | 0.0 | 0.0 | 0.00 | 0.00 | 0.00 | 91 | 1029.4 |
| 20260508203114 | 53 | 263 | 0.0 | 0.0 | 0.00 | 0.00 | 0.00 | 91 | 1029.4 |
| 20260508201938 | 54 | 263 | 0.0 | 0.0 | 0.00 | 0.00 | 0.00 | 90 | 1029.2 |
| 20260508201429 | 54 | 263 | 0.0 | 0.0 | 0.00 | 0.00 | 0.00 | 91 | 1029.2 |
| 20260508200914 | 54 | 263 | 0.0 | 0.0 | 0.00 | 0.00 | 0.00 | 91 | 1029.1 |
| 20260508200359 | 54 | 263 | 0.0 | 0.0 | 0.00 | 0.00 | 0.00 | 91 | 1029.1 |
| 20260508195908 | 54 | 263 | 0.0 | 0.0 | 0.00 | 0.00 | 0.00 | 91 | 1029.1 |
| 20260508195412 | 54 | 263 | 0.0 | 0.0 | 0.00 | 0.00 | 0.00 | 91 | 1029.0 |
| 20260508194900 | 55 | 263 | 0.0 | 0.0 | 0.00 | 0.00 | 0.00 | 91 | 1029.0 |
| 20260508194405 | 55 | 263 | 0.0 | 0.0 | 0.00 | 0.00 | 0.00 | 91 | 1029.0 |
| 20260508193845 | 54 | 263 | 0.0 | 4.0 | 0.00 | 0.00 | 0.00 | 91 | 1029.0 |
| 20260508193340 | 54 | 263 | 0.0 | 4.0 | 0.00 | 0.00 | 0.00 | 91 | 1029.0 |
| 20260508192834 | 54 | 263 | 0.0 | 0.0 | 0.00 | 0.00 | 0.00 | 91 | 1028.9 |
| 20260508192328 | 54 | 263 | 0.0 | 0.0 | 0.00 | 0.00 | 0.00 | 91 | 1028.9 |
| 20260508191813 | 54 | 263 | 0.0 | 0.0 | 0.00 | 0.00 | 0.00 | 91 | 1028.9 |
| 20260508191255 | 54 | 263 | 0.0 | 0.0 | 0.00 | 0.00 | 0.00 | 91 | 1028.9 |
| 20260508190753 | 54 | 263 | 0.0 | 0.0 | 0.00 | 0.00 | 0.00 | 91 | 1028.9 |
| 20260508185626 | 54 | 263 | 0.0 | 0.0 | 0.00 | 0.00 | 0.00 | 91 | 1028.8 |
| 20260508185130 | 54 | 263 | 0.0 | 0.0 | 0.00 | 0.00 | 0.00 | 91 | 1028.8 |
| 20260508184622 | 54 | 263 | 0.0 | 0.0 | 0.00 | 0.00 | 0.00 | 91 | 1028.8 |
| 20260508184131 | 54 | 263 | 0.0 | 0.0 | 0.00 | 0.00 | 0.00 | 91 | 1028.9 |
| 20260508183626 | 54 | 263 | 0.0 | 0.0 | 0.00 | 0.00 | 0.00 | 91 | 1028.9 |
| 20260508183129 | 54 | 263 | 0.0 | 0.0 | 0.00 | 0.00 | 0.00 | 91 | 1028.9 |
| 20260508182006 | 54 | 263 | 0.0 | 0.0 | 0.00 | 0.00 | 0.00 | 90 | 1029.0 |
| 20260508181506 | 54 | 263 | 0.0 | 0.0 | 0.00 | 0.00 | 0.00 | 90 | 1029.0 |
| 20260508181003 | 54 | 263 | 0.0 | 0.0 | 0.00 | 0.00 | 0.00 | 90 | 1029.0 |
| 20260508180447 | 54 | 263 | 0.0 | 0.0 | 0.00 | 0.00 | 0.00 | 90 | 1029.0 |
| 20260508175948 | 54 | 263 | 0.0 | 0.0 | 0.00 | 0.00 | 0.00 | 90 | 1029.0 |
| 20260508175443 | 54 | 263 | 0.0 | 0.0 | 0.00 | 0.00 | 0.00 | 90 | 1029.1 |
| 20260508174947 | 54 | 263 | 0.0 | 0.0 | 0.00 | 0.00 | 0.00 | 90 | 1029.1 |
| 20260508173805 | 54 | 263 | 0.0 | 0.0 | 0.00 | 0.00 | 0.00 | 90 | 1029.3 |
| 20260508172635 | 54 | 263 | 0.0 | 0.0 | 0.00 | 0.00 | 0.00 | 90 | 1029.2 |
| 20260508172145 | 54 | 263 | 0.0 | 0.0 | 0.00 | 0.00 | 0.00 | 90 | 1029.2 |
| 20260508171649 | 54 | 263 | 0.0 | 0.0 | 0.00 | 0.00 | 0.00 | 90 | 1029.2 |
| 20260508170519 | 54 | 263 | 0.0 | 0.0 | 0.00 | 0.00 | 0.00 | 90 | 1029.1 |
| 20260508165347 | 54 | 263 | 0.0 | 0.0 | 0.00 | 0.00 | 0.00 | 90 | 1029.1 |
| 20260508164838 | 54 | 263 | 1.0 | 3.0 | 0.00 | 0.00 | 0.00 | 90 | 1029.1 |
| 20260508164342 | 54 | 263 | 1.0 | 3.0 | 0.00 | 0.00 | 0.00 | 90 | 1029.0 |
| 20260508163826 | 54 | 263 | 1.0 | 3.0 | 0.00 | 0.00 | 0.00 | 90 | 1029.0 |
| 20260508163328 | 53 | 263 | 1.0 | 3.0 | 0.00 | 0.00 | 0.00 | 90 | 1029.0 |
| 20260508162142 | 53 | 263 | 1.0 | 2.0 | 0.00 | 0.00 | 0.00 | 89 | 1029.1 |
| 20260508160353 | 53 | 263 | 0.0 | 1.0 | 0.00 | 0.00 | 0.00 | 89 | 1029.2 |
| 20260508155227 | 53 | 263 | 0.0 | 2.0 | 0.00 | 0.00 | 0.00 | 89 | 1029.2 |
| 20260508154720 | 53 | 263 | 0.0 | 2.0 | 0.00 | 0.00 | 0.00 | 89 | 1029.2 |
| 20260508154230 | 53 | 263 | 0.0 | 0.0 | 0.00 | 0.00 | 0.00 | 89 | 1029.3 |
| 20260508153714 | 53 | 263 | 0.0 | 0.0 | 0.00 | 0.00 | 0.00 | 89 | 1029.3 |
| 20260508153202 | 53 | 263 | 0.0 | 0.0 | 0.00 | 0.00 | 0.00 | 89 | 1029.3 |
| 20260508152653 | 53 | 263 | 0.0 | 0.0 | 0.00 | 0.00 | 0.00 | 88 | 1029.5 |
| 20260508152153 | 53 | 263 | 0.0 | 0.0 | 0.00 | 0.00 | 0.00 | 88 | 1029.5 |
| 20260508151638 | 53 | 263 | 0.0 | 0.0 | 0.00 | 0.00 | 0.00 | 88 | 1029.5 |
| 20260508151146 | 53 | 263 | 0.0 | 0.0 | 0.00 | 0.00 | 0.00 | 88 | 1029.5 |
| 20260508150648 | 53 | 263 | 0.0 | 0.0 | 0.00 | 0.00 | 0.00 | 88 | 1029.5 |
| 20260508145530 | 54 | 263 | 0.0 | 0.0 | 0.00 | 0.00 | 0.00 | 88 | 1029.5 |
| 20260508145031 | 54 | 263 | 0.0 | 0.0 | 0.00 | 0.00 | 0.00 | 88 | 1029.5 |
| 20260508144531 | 54 | 263 | 0.0 | 0.0 | 0.00 | 0.00 | 0.00 | 88 | 1029.5 |
| 20260508144027 | 54 | 263 | 0.0 | 0.0 | 0.00 | 0.00 | 0.00 | 87 | 1029.6 |
| 20260508143526 | 54 | 263 | 0.0 | 0.0 | 0.00 | 0.00 | 0.00 | 87 | 1029.6 |
| 20260508142401 | 54 | 263 | 0.0 | 0.0 | 0.00 | 0.00 | 0.00 | 87 | 1029.6 |
| 20260508141854 | 54 | 263 | 0.0 | 0.0 | 0.00 | 0.00 | 0.00 | 87 | 1029.6 |
| 20260508141400 | 54 | 263 | 0.0 | 0.0 | 0.00 | 0.00 | 0.00 | 87 | 1029.6 |
| 20260508135606 | 54 | 263 | 0.0 | 0.0 | 0.00 | 0.00 | 0.00 | 87 | 1029.7 |
| 20260508135114 | 54 | 263 | 0.0 | 2.0 | 0.00 | 0.00 | 0.00 | 87 | 1029.7 |
| 20260508134554 | 54 | 263 | 0.0 | 2.0 | 0.00 | 0.00 | 0.00 | 87 | 1029.7 |
| 20260508134100 | 54 | 263 | 0.0 | 2.0 | 0.00 | 0.00 | 0.00 | 86 | 1030.0 |
| 20260508133549 | 55 | 263 | 0.0 | 0.0 | 0.00 | 0.00 | 0.00 | 86 | 1030.0 |
| 20260508133036 | 55 | 263 | 0.0 | 0.0 | 0.00 | 0.00 | 0.00 | 86 | 1030.0 |
| 20260508132528 | 55 | 263 | 0.0 | 0.0 | 0.00 | 0.00 | 0.00 | 86 | 1030.1 |
| 20260508132035 | 55 | 263 | 0.0 | 0.0 | 0.00 | 0.00 | 0.00 | 86 | 1030.1 |
| 20260508130908 | 55 | 263 | 0.0 | 3.0 | 0.00 | 0.00 | 0.00 | 86 | 1030.1 |
| 20260508130403 | 55 | 263 | 0.0 | 3.0 | 0.00 | 0.00 | 0.00 | 86 | 1030.1 |
| 20260508125854 | 55 | 263 | 0.0 | 2.0 | 0.00 | 0.00 | 0.00 | 85 | 1030.1 |
| 20260508125357 | 55 | 263 | 0.0 | 1.0 | 0.00 | 0.00 | 0.00 | 85 | 1030.1 |
| 20260508124224 | 55 | 263 | 0.0 | 3.0 | 0.00 | 0.00 | 0.00 | 85 | 1030.1 |
| 20260508123725 | 55 | 263 | 1.0 | 3.0 | 0.00 | 0.00 | 0.00 | 85 | 1030.1 |
| 20260508123228 | 56 | 263 | 1.0 | 3.0 | 0.00 | 0.00 | 0.00 | 85 | 1030.1 |
| 20260508122728 | 56 | 263 | 0.0 | 3.0 | 0.00 | 0.00 | 0.00 | 85 | 1030.1 |
| 20260508122214 | 56 | 263 | 0.0 | 2.0 | 0.00 | 0.00 | 0.00 | 84 | 1030.1 |
| 20260508121716 | 56 | 263 | 1.0 | 2.0 | 0.00 | 0.00 | 0.00 | 84 | 1030.1 |
| 20260508121216 | 56 | 263 | 1.0 | 2.0 | 0.00 | 0.00 | 0.00 | 84 | 1030.1 |
| 20260508120712 | 56 | 263 | 0.0 | 2.0 | 0.00 | 0.00 | 0.00 | 83 | 1030.1 |
| 20260508114934 | 56 | 263 | 0.0 | 1.0 | 0.00 | 0.00 | 0.00 | 83 | 1030.1 |
| 20260508114440 | 57 | 263 | 0.0 | 0.0 | 0.00 | 0.00 | 0.00 | 83 | 1030.1 |
| 20260508113926 | 57 | 263 | 0.0 | 2.0 | 0.00 | 0.00 | 0.00 | 82 | 1030.1 |
| 20260508112807 | 57 | 263 | 0.0 | 2.0 | 0.00 | 0.00 | 0.00 | 81 | 1030.1 |
| 20260508112253 | 57 | 263 | 0.0 | 4.0 | 0.00 | 0.00 | 0.00 | 81 | 1030.1 |
| 20260508111736 | 57 | 263 | 0.0 | 4.0 | 0.00 | 0.00 | 0.00 | 81 | 1030.1 |
| 20260508110604 | 58 | 263 | 2.0 | 5.0 | 0.00 | 0.00 | 0.00 | 81 | 1030.1 |
| 20260508110112 | 58 | 263 | 2.0 | 5.0 | 0.00 | 0.00 | 0.00 | 81 | 1030.1 |
| 20260508105608 | 58 | 263 | 2.0 | 5.0 | 0.00 | 0.00 | 0.00 | 80 | 1030.1 |
| 20260508105049 | 58 | 263 | 2.0 | 4.0 | 0.00 | 0.00 | 0.00 | 80 | 1030.1 |
| 20260508104531 | 58 | 263 | 2.0 | 4.0 | 0.00 | 0.00 | 0.00 | 80 | 1030.1 |
| 20260508104011 | 58 | 263 | 1.0 | 5.0 | 0.00 | 0.00 | 0.00 | 79 | 1030.1 |
| 20260508103501 | 58 | 263 | 2.0 | 5.0 | 0.00 | 0.00 | 0.00 | 79 | 1030.1 |
| 20260508102949 | 59 | 263 | 3.0 | 5.0 | 0.00 | 0.00 | 0.00 | 79 | 1030.1 |
| 20260508102457 | 59 | 263 | 3.0 | 5.0 | 0.00 | 0.00 | 0.00 | 79 | 1030.1 |
| 20260508101951 | 59 | 263 | 2.0 | 8.0 | 0.00 | 0.00 | 0.00 | 78 | 1030.1 |
| 20260508101438 | 59 | 263 | 2.0 | 8.0 | 0.00 | 0.00 | 0.00 | 78 | 1030.1 |
| 20260508100934 | 59 | 263 | 2.0 | 8.0 | 0.00 | 0.00 | 0.00 | 78 | 1030.0 |
| 20260508095823 | 59 | 263 | 2.0 | 6.0 | 0.00 | 0.00 | 0.00 | 78 | 1030.0 |
| 20260508095325 | 59 | 263 | 2.0 | 5.0 | 0.00 | 0.00 | 0.00 | 78 | 1030.0 |
| 20260508094833 | 59 | 263 | 1.0 | 5.0 | 0.00 | 0.00 | 0.00 | 77 | 1030.0 |
| 20260508094332 | 59 | 263 | 1.0 | 4.0 | 0.00 | 0.00 | 0.00 | 77 | 1029.9 |
| 20260508093817 | 59 | 263 | 0.0 | 4.0 | 0.00 | 0.00 | 0.00 | 77 | 1029.9 |
| 20260508093301 | 59 | 263 | 0.0 | 4.0 | 0.00 | 0.00 | 0.00 | 77 | 1029.9 |
| 20260508092752 | 59 | 263 | 0.0 | 2.0 | 0.00 | 0.00 | 0.00 | 77 | 1029.6 |
| 20260508091610 | 59 | 263 | 0.0 | 3.0 | 0.00 | 0.00 | 0.00 | 77 | 1029.6 |
| 20260508091059 | 60 | 263 | 0.0 | 3.0 | 0.00 | 0.00 | 0.00 | 78 | 1029.6 |
| 20260508090601 | 60 | 263 | 1.0 | 6.0 | 0.00 | 0.00 | 0.00 | 78 | 1029.6 |
| 20260508090059 | 60 | 263 | 1.0 | 6.0 | 0.00 | 0.00 | 0.00 | 78 | 1029.6 |
| 20260508084949 | 60 | 263 | 1.0 | 4.0 | 0.00 | 0.00 | 0.00 | 78 | 1029.6 |
| 20260508084437 | 60 | 263 | 1.0 | 4.0 | 0.00 | 0.00 | 0.00 | 78 | 1029.6 |
| 20260508083319 | 60 | 263 | 1.0 | 5.0 | 0.00 | 0.00 | 0.00 | 79 | 1029.5 |
| 20260508082811 | 60 | 263 | 1.0 | 5.0 | 0.00 | 0.00 | 0.00 | 79 | 1029.5 |
| 20260508082257 | 60 | 263 | 1.0 | 8.0 | 0.00 | 0.00 | 0.00 | 79 | 1029.5 |
| 20260508081738 | 60 | 263 | 2.0 | 8.0 | 0.00 | 0.00 | 0.00 | 79 | 1029.5 |
| 20260508081223 | 60 | 263 | 2.0 | 8.0 | 0.00 | 0.00 | 0.00 | 79 | 1029.2 |
| 20260508075426 | 61 | 263 | 3.0 | 9.0 | 0.00 | 0.00 | 0.00 | 78 | 1029.1 |
| 20260508074919 | 61 | 263 | 3.0 | 11.0 | 0.00 | 0.00 | 0.00 | 77 | 1029.1 |
| 20260508074426 | 61 | 263 | 4.0 | 11.0 | 0.00 | 0.00 | 0.00 | 77 | 1029.1 |
| 20260508073908 | 62 | 263 | 4.0 | 11.0 | 0.00 | 0.00 | 0.00 | 76 | 1029.0 |
| 20260508072737 | 62 | 263 | 3.0 | 10.0 | 0.00 | 0.00 | 0.00 | 77 | 1029.0 |
| 20260508072237 | 62 | 263 | 4.0 | 13.0 | 0.00 | 0.00 | 0.00 | 77 | 1029.0 |
| 20260508071728 | 62 | 263 | 5.0 | 13.0 | 0.00 | 0.00 | 0.00 | 77 | 1029.0 |
| 20260508071215 | 62 | 263 | 5.0 | 13.0 | 0.00 | 0.00 | 0.00 | 76 | 1029.0 |
| 20260508070056 | 62 | 263 | 4.0 | 10.0 | 0.00 | 0.00 | 0.00 | 78 | 1029.0 |
| 20260508065545 | 62 | 263 | 5.0 | 11.0 | 0.00 | 0.00 | 0.00 | 78 | 1029.1 |
| 20260508064408 | 62 | 263 | 4.0 | 11.0 | 0.00 | 0.00 | 0.00 | 76 | 1029.1 |
| 20260508063902 | 62 | 263 | 4.0 | 10.0 | 0.00 | 0.00 | 0.00 | 74 | 1029.0 |
| 20260508063355 | 63 | 263 | 3.0 | 10.0 | 0.00 | 0.00 | 0.00 | 74 | 1029.0 |
| 20260508062842 | 63 | 263 | 3.0 | 9.0 | 0.00 | 0.00 | 0.00 | 74 | 1029.0 |
| 20260508062324 | 63 | 263 | 4.0 | 14.0 | 0.00 | 0.00 | 0.00 | 76 | 1029.0 |
| 20260508061819 | 63 | 263 | 4.0 | 14.0 | 0.00 | 0.00 | 0.00 | 76 | 1029.0 |
| 20260508061310 | 63 | 263 | 5.0 | 14.0 | 0.00 | 0.00 | 0.00 | 76 | 1029.0 |
| 20260508060157 | 63 | 263 | 7.0 | 14.0 | 0.00 | 0.00 | 0.00 | 76 | 1029.0 |
| 20260508055042 | 63 | 263 | 8.0 | 14.0 | 0.00 | 0.00 | 0.00 | 77 | 1029.0 |
| 20260508053900 | 62 | 263 | 6.0 | 13.0 | 0.00 | 0.00 | 0.00 | 76 | 1029.0 |
| 20260508053345 | 62 | 263 | 6.0 | 13.0 | 0.00 | 0.00 | 0.00 | 75 | 1029.0 |
| 20260508052840 | 62 | 263 | 6.0 | 13.0 | 0.00 | 0.00 | 0.00 | 76 | 1029.0 |
| 20260508051716 | 63 | 263 | 4.0 | 12.0 | 0.00 | 0.00 | 0.00 | 76 | 1029.0 |
| 20260508051201 | 63 | 263 | 5.0 | 14.0 | 0.00 | 0.00 | 0.00 | 76 | 1029.0 |
| 20260508050655 | 63 | 263 | 5.0 | 14.0 | 0.00 | 0.00 | 0.00 | 75 | 1029.0 |
| 20260508050157 | 63 | 263 | 6.0 | 14.0 | 0.00 | 0.00 | 0.00 | 75 | 1029.0 |
| 20260508045021 | 63 | 263 | 6.0 | 13.0 | 0.00 | 0.00 | 0.00 | 73 | 1029.0 |
| 20260508043227 | 64 | 263 | 4.0 | 12.0 | 0.00 | 0.00 | 0.00 | 71 | 1029.0 |
| 20260508041447 | 64 | 263 | 4.0 | 12.0 | 0.00 | 0.00 | 0.00 | 71 | 1029.2 |
| 20260508040928 | 64 | 263 | 6.0 | 12.0 | 0.00 | 0.00 | 0.00 | 72 | 1029.3 |
| 20260508040415 | 64 | 263 | 5.0 | 12.0 | 0.00 | 0.00 | 0.00 | 74 | 1029.3 |
| 20260508035858 | 64 | 263 | 4.0 | 14.0 | 0.00 | 0.00 | 0.00 | 75 | 1029.5 |
| 20260508034723 | 62 | 263 | 5.0 | 14.0 | 0.00 | 0.00 | 0.00 | 78 | 1029.5 |
| 20260508034229 | 62 | 263 | 4.0 | 14.0 | 0.00 | 0.00 | 0.00 | 78 | 1029.6 |
| 20260508033734 | 61 | 263 | 4.0 | 11.0 | 0.00 | 0.00 | 0.00 | 80 | 1029.6 |
| 20260508033238 | 61 | 263 | 5.0 | 11.0 | 0.00 | 0.00 | 0.00 | 81 | 1029.6 |
| 20260508032732 | 61 | 263 | 5.0 | 11.0 | 0.00 | 0.00 | 0.00 | 83 | 1029.9 |
| 20260508032242 | 61 | 263 | 5.0 | 11.0 | 0.00 | 0.00 | 0.00 | 84 | 1029.9 |
| 20260508031731 | 61 | 263 | 5.0 | 10.0 | 0.00 | 0.00 | 0.00 | 86 | 1029.9 |
| 20260508030548 | 60 | 263 | 4.0 | 10.0 | 0.00 | 0.00 | 0.00 | 86 | 1030.1 |
| 20260508030041 | 60 | 263 | 5.0 | 14.0 | 0.00 | 0.00 | 0.00 | 85 | 1030.1 |
| 20260508025532 | 61 | 263 | 6.0 | 14.0 | 0.00 | 0.00 | 0.00 | 86 | 1030.1 |
| 20260508025026 | 61 | 263 | 6.0 | 14.0 | 0.00 | 0.00 | 0.00 | 85 | 1030.1 |
| 20260508024519 | 61 | 263 | 4.0 | 14.0 | 0.00 | 0.00 | 0.00 | 85 | 1030.1 |
| 20260508023959 | 61 | 263 | 3.0 | 13.0 | 0.00 | 0.00 | 0.00 | 86 | 1030.2 |
| 20260508023456 | 61 | 263 | 3.0 | 13.0 | 0.00 | 0.00 | 0.00 | 86 | 1030.2 |
| 20260508022337 | 60 | 263 | 4.0 | 11.0 | 0.00 | 0.00 | 0.00 | 87 | 1030.6 |
| 20260508021829 | 60 | 263 | 3.0 | 9.0 | 0.00 | 0.00 | 0.00 | 88 | 1030.6 |
| 20260508021318 | 60 | 263 | 4.0 | 12.0 | 0.00 | 0.00 | 0.00 | 87 | 1030.6 |
| 20260508020802 | 60 | 263 | 4.0 | 13.0 | 0.00 | 0.00 | 0.00 | 87 | 1030.6 |
| 20260508015655 | 60 | 263 | 6.0 | 13.0 | 0.00 | 0.00 | 0.00 | 86 | 1030.7 |
| 20260508015202 | 60 | 263 | 5.0 | 13.0 | 0.00 | 0.00 | 0.00 | 86 | 1030.7 |
| 20260508014655 | 60 | 263 | 3.0 | 12.0 | 0.00 | 0.00 | 0.00 | 87 | 1030.7 |
| 20260508014155 | 60 | 263 | 4.0 | 12.0 | 0.00 | 0.00 | 0.00 | 87 | 1031.1 |
| 20260508013046 | 59 | 263 | 4.0 | 11.0 | 0.00 | 0.00 | 0.00 | 86 | 1031.1 |
| 20260508012535 | 60 | 263 | 4.0 | 12.0 | 0.00 | 0.00 | 0.00 | 87 | 1031.1 |
| 20260508012030 | 59 | 263 | 5.0 | 12.0 | 0.00 | 0.00 | 0.00 | 86 | 1031.1 |
| 20260508011528 | 60 | 263 | 5.0 | 12.0 | 0.00 | 0.00 | 0.00 | 86 | 1031.1 |
| 20260508011018 | 60 | 263 | 4.0 | 12.0 | 0.00 | 0.00 | 0.00 | 85 | 1031.1 |
| 20260508010506 | 60 | 263 | 4.0 | 8.0 | 0.00 | 0.00 | 0.00 | 86 | 1031.1 |
| 20260508005346 | 59 | 263 | 3.0 | 10.0 | 0.00 | 0.00 | 0.00 | 86 | 1031.1 |
| 20260508004837 | 59 | 263 | 3.0 | 10.0 | 0.00 | 0.00 | 0.00 | 86 | 1031.1 |
| 20260508004317 | 59 | 263 | 3.0 | 10.0 | 0.00 | 0.00 | 0.00 | 85 | 1031.1 |
| 20260508003804 | 59 | 263 | 3.0 | 9.0 | 0.00 | 0.00 | 0.00 | 85 | 1031.1 |
| 20260508003300 | 59 | 263 | 3.0 | 9.0 | 0.00 | 0.00 | 0.00 | 84 | 1031.1 |
| 20260508002800 | 59 | 263 | 2.0 | 6.0 | 0.00 | 0.00 | 0.00 | 84 | 1031.0 |